This demonstration page uses our WeatherBlox Daily Observations layout. Learn more.

Left ArrowRight Arrow

Hourly Observations for May 29, 2019

Temp ( °F °C ) Dew Point ( °F °C ) Humidity (%) Winds ( mph kmh ) Pressure ( in mb ) Visibility ( mi km ) Precip ( " mm )
12:12 am 00:12 Cloudy with Drizzle 60 15.6 57 13.9 90 90 NNE 10 17 29.67 1005 3 4 0.00 0.03
12:36 am 00:36 Cloudy with Drizzle 60 15.6 58 14.4 93 93 NNE 8 13 29.68 1005 3 4 0.01 0.25
12:49 am 00:49 Cloudy with Drizzle 61 16 57 14 88 88 NNE 5 7 29.67 1005 3 4 0.01 0.25
12:52 am 00:52 Cloudy with Drizzle 60 15.6 58 14.4 93 93 NNE 5 7 29.67 1005 3 4 0.01 0.25
1:01 am 01:01 Cloudy with Mist and Fog 60 15.6 58 14.4 93 93 NE 5 7 29.67 1005 4 6 0.00 0.03
1:20 am 01:20 Cloudy with Mist and Fog 60 15.6 58 14.4 93 93 NNW 3 6 29.69 1005 6 10 0.00 0.03
1:52 am 01:52 Cloudy 60 15.6 58 14.4 93 93 ENE 3 6 29.68 1005 7 11 0.00 0.03
2:52 am 02:52 Cloudy with Mist and Fog 60 15.6 58 14.4 93 93 ENE 6 9 29.65 1004 6 10 0.00 0.00
3:52 am 03:52 Cloudy with Mist and Fog 60 15.6 58 14.4 93 93 E 5 7 29.65 1004 5 8 0.00 0.00
4:52 am 04:52 Cloudy with Mist and Fog 60 15.6 59 15 96 96 S 3 6 29.66 1004 2 3 0.00 0.00
5:10 am 05:10 Cloudy with Drizzle 60 15.6 59 15 96 96 SSW 5 7 29.67 1005 2 2 0.00 0.03
5:23 am 05:23 Cloudy with Drizzle 60 15.6 59 15 96 96 Calm 29.67 1005 2 2 0.00 0.03
5:52 am 05:52 Cloudy with Mist and Fog 60 15.6 59 15 96 96 SSW 3 6 29.68 1005 3 4 0.01 0.25
6:04 am 06:04 Cloudy with Mist and Fog 61 16.1 59 15 93 93 SSW 5 7 29.68 1005 3 5 0.00 0.00
6:11 am 06:11 Cloudy with Drizzle 61 16.1 59 15 93 93 SW 5 7 29.68 1005 2 3 0.00 0.03
6:17 am 06:17 Cloudy with Drizzle 61 16.1 59 15 93 93 SW 3 6 29.68 1005 2 2 0.00 0.03
6:43 am 06:43 Cloudy with Mist and Fog 61 16.1 59 15 93 93 SSW 5 7 29.68 1005 2 3 0.00 0.03
6:52 am 06:52 Cloudy with Mist and Fog 61 16.1 59 15 93 93 SSW 3 6 29.68 1005 2 3 0.00 0.03
7:06 am 07:06 Cloudy with Drizzle 61 16.1 59 15 93 93 SSW 3 6 29.68 1005 1 2 0.00 0.03
7:29 am 07:29 Cloudy with Mist and Fog 62 16.7 59 15 90 90 W 6 9 29.69 1005 5 8 0.00 0.03
7:52 am 07:52 Cloudy 62 16.7 59 15 90 90 W 7 11 29.70 1006 10 16 0.00 0.03
8:52 am 08:52 Cloudy 63 17.2 59 15 87 87 W 9 15 29.71 1006 10 16 0.00 0.00
9:52 am 09:52 Mostly Cloudy 64 17.8 58 14.4 81 81 W 12 19 29.72 1007 10 16 0.00 0.00
9:59 am 09:59 Mostly Cloudy 64 17.8 57 13.9 78 78 WNW 7 11 29.72 1006 10 16 0.00 0.00
10:52 am 10:52 Mostly Cloudy 66 18.9 56 13.3 70 70 W 12 19 29.73 1007 10 16 0.00 0.00
11:14 am 11:14 Mostly Cloudy 67 19.4 57 13.9 71 71 WNW 13 20 29.73 1007 10 16 0.00 0.00
11:52 am 11:52 Mostly Cloudy 66 18.9 56 13.3 70 70 WNW 13 20 29.73 1007 10 16 0.00 0.00
12:52 pm 12:52 Mostly Cloudy 68 20 56 13.3 65 65 WNW 10 17 29.73 1007 10 16 0.00 0.00
1:52 pm 13:52 Mostly Cloudy 70 21.1 58 14.4 66 66 NW 10 17 29.72 1006 10 16 0.00 0.00
2:52 pm 14:52 Mostly Cloudy 70 21.1 54 12.2 57 57 W 9 15 29.73 1007 10 16 0.00 0.00
3:52 pm 15:52 Mostly Cloudy 71 21.7 57 13.9 61 61 NNW 6 9 29.72 1006 10 16 0.00 0.00
4:52 pm 16:52 Mostly Cloudy 67 19.4 59 15 76 76 NNW 8 13 29.72 1007 10 16 0.00 0.00
5:52 pm 17:52 Mostly Cloudy 68 20 58 14.4 70 70 N 8 13 29.72 1006 10 16 0.00 0.00
6:52 pm 18:52 Mostly Cloudy 70 21.1 57 13.9 64 64 NW 9 15 29.72 1006 10 16 0.00 0.00
7:52 pm 19:52 Cloudy 67 19.4 57 13.9 71 71 WNW 8 13 29.74 1007 10 16 0.00 0.00
8:52 pm 20:52 Mostly Cloudy 64 17.8 56 13.3 75 75 NW 13 20 29.76 1008 10 16 0.00 0.00
9:52 pm 21:52 Partly Cloudy 62 16.7 55 12.8 78 78 WNW 9 15 29.78 1008 10 16 0.00 0.00
10:52 pm 22:52 Partly Cloudy 60 15.6 55 12.8 84 84 WNW 6 9 29.78 1008 10 16 0.00 0.00
11:09 pm 23:09 Mostly Cloudy 61 16.1 56 13.3 84 84 WNW 5 7 29.78 1008 10 16 0.00 0.00
11:38 pm 23:38 Mostly Cloudy 60 15.6 55 12.8 84 84 W 3 6 29.78 1008 10 16 0.00 0.00
11:52 pm 23:52 Mostly Cloudy 60 15.6 55 12.8 84 84 VRB 5 7 29.77 1008 10 16 0.00 0.00
11:59 pm 23:59 Cloudy 60 15.6 55 12.8 84 84 WSW 3 6 29.78 1008 10 16 0.00 0.00

Powered by AerisWeather